Brooklyn Center, MN

2:34 AM CDT on September 25, 2016 (GMT -0500)
Crystal

Weather History for KMIC - October, 2013

Change the Weather History Date:

Tuesday, October 29, 2013

  Actual Average Record
Temperature  
Mean Temperature 34 °F -  
Max Temperature 39 °F 49 °F 73 °F (2004)
Min Temperature 30 °F 33 °F 23 °F (1992)
Degree Days  
Heating Degree Days 30    
Moisture  
Dew Point 28 °F    
Average Humidity 70    
Maximum Humidity 93    
Minimum Humidity 60    
Precipitation  
Precipitation 0.07 in - - ()
Sea Level Pressure  
Sea Level Pressure 30.27 in    
Wind  
Wind Speed 3 mph (ENE)    
Max Wind Speed 9 mph    
Max Gust Speed -    
Visibility 10 miles    
Events Rain    
Averages and records for this station are not official NWS values.
T = Trace of Precipitation, MM = Missing Value Source: NWS Daily Summary

Daily Weather History Graph

Daily Weather History Graph

Search for Another Location

Airport or City:

Trip Planner

Search our weather history database for the weather conditions in past years. The results will help you decide how hot, cold, wet, or windy it might be!

Date:

Astronomy

Oct. 29, 2013 Rise Set
Actual Time 7:48 AM CDT 6:05 PM CDT
Civil Twilight 7:17 AM CDT 6:35 PM CDT
Nautical Twilight 6:43 AM CDT 7:10 PM CDT
Astronomical Twilight 6:09 AM CDT 7:44 PM CDT
Moon 2:25 AM CDT (10/29) 3:31 PM CDT (10/29)
Length of Visible Light 11h 17m
Length of Day
10h 17m
Waning Crescent, 25% of the Moon is Illuminated
Oct 29
Waning Crescent
Nov 3
New
Nov 9
First Quarter
Nov 17
Full
Nov 25
Last Quarter

Hourly Weather History & Observations

Time (CDT) Temp. Windchill Dew Point Humidity Pressure Visibility Wind Dir Wind Speed Gust Speed Precip Events Conditions
12:53 AM 30.0 °F - 23.0 °F 75% 30.44 in 10.0 mi Calm Calm - N/A   Partly Cloudy
1:53 AM 30.9 °F - 23.0 °F 72% 30.42 in 10.0 mi Calm Calm - N/A   Mostly Cloudy
2:53 AM 32.0 °F 26.4 °F 21.0 °F 64% 30.42 in 10.0 mi NE 5.8 mph - N/A   Overcast
3:53 AM 33.1 °F - 21.9 °F 64% 30.42 in 10.0 mi Calm Calm - N/A   Overcast
4:53 AM 33.1 °F - 23.0 °F 66% 30.41 in 10.0 mi Calm Calm - N/A   Overcast
5:53 AM 33.1 °F 28.7 °F 23.0 °F 66% 30.39 in 10.0 mi ENE 4.6 mph - N/A   Overcast
6:53 AM 34.0 °F 29.8 °F 23.0 °F 64% 30.35 in 10.0 mi ENE 4.6 mph - N/A   Overcast
7:53 AM 35.1 °F 31.0 °F 24.1 °F 64% 30.35 in 10.0 mi ESE 4.6 mph - N/A   Overcast
8:53 AM 36.0 °F 32.1 °F 24.1 °F 62% 30.33 in 10.0 mi East 4.6 mph - N/A   Overcast
9:53 AM 37.0 °F 33.3 °F 25.0 °F 62% 30.33 in 10.0 mi East 4.6 mph - N/A   Overcast
10:53 AM 37.9 °F 34.4 °F 25.0 °F 60% 30.33 in 10.0 mi ENE 4.6 mph - N/A   Overcast
11:13 AM 37.4 °F 33.8 °F 24.8 °F 60% 30.29 in 10.0 mi ENE 4.6 mph - N/A   Overcast
11:53 AM 37.9 °F 33.5 °F 25.0 °F 60% 30.31 in 10.0 mi ENE 5.8 mph - N/A   Overcast
12:02 PM 37.4 °F 32.8 °F 26.6 °F 65% 30.28 in 10.0 mi ENE 5.8 mph - 0.00 in Rain Light Rain
12:53 PM 37.9 °F 31.5 °F 30.0 °F 73% 30.27 in 10.0 mi ENE 9.2 mph - 0.00 in   Overcast
1:53 PM 39.0 °F 32.8 °F 30.0 °F 70% 30.24 in 10.0 mi ENE 9.2 mph - N/A   Overcast
2:53 PM 39.0 °F 33.4 °F 30.0 °F 70% 30.22 in 10.0 mi East 8.1 mph - N/A   Overcast
3:53 PM 39.0 °F 34.0 °F 30.0 °F 70% 30.20 in 10.0 mi ENE 6.9 mph - N/A   Overcast
4:53 PM 39.0 °F 33.4 °F 30.9 °F 73% 30.17 in 10.0 mi East 8.1 mph - 0.00 in   Overcast
5:53 PM 39.9 °F 35.8 °F 30.9 °F 70% 30.16 in 10.0 mi East 5.8 mph - N/A   Overcast
6:53 PM 39.9 °F 35.8 °F 30.9 °F 70% 30.15 in 10.0 mi East 5.8 mph - N/A   Overcast
7:53 PM 39.9 °F - 32.0 °F 73% 30.14 in 10.0 mi Calm Calm - N/A   Overcast
8:53 PM 39.9 °F - 32.0 °F 73% 30.13 in 10.0 mi Calm Calm - N/A   Mostly Cloudy
9:53 PM 39.9 °F 37.8 °F 33.1 °F 77% 30.14 in 7.0 mi NE 3.5 mph - 0.01 in Rain Light Rain
10:53 PM 37.9 °F - 35.1 °F 89% 30.13 in 7.0 mi Calm Calm - 0.05 in Rain Light Rain
11:15 PM 37.4 °F 34.9 °F 35.6 °F 93% 30.10 in 6.0 mi NE 3.5 mph - 0.01 in Rain Light Rain
11:53 PM 37.9 °F 35.5 °F 36.0 °F 93% 30.11 in 9.0 mi NE 3.5 mph - 0.01 in   Overcast